FW9098 Weather Reports


time (UTC)temp
F
wind
direction
speed
knots
gust
knots
rain 1hr
in
rain 24hr
in
rain mn
in
humidity
%
barometer
mb
20260507202534 55 138 1.7 6.1 0.01 0.04 0.04 85 1014.9
20260507202036 55 142 0.9 5.2 0.01 0.04 0.04 85 1014.8
20260507201552 55 0 1.7 5.2 0.01 0.04 0.04 85 1014.8
20260507201036 55 118 0.9 3.5 0.01 0.04 0.04 85 1014.8
20260507200535 55 143 1.7 3.5 0.01 0.04 0.04 85 1014.7
20260507200046 55 119 1.7 3.5 0.01 0.04 0.04 85 1014.7
20260507195534 55 115 0.9 4.3 0.01 0.04 0.04 84 1014.6
20260507195037 56 133 1.7 4.3 0.01 0.04 0.04 84 1014.5
20260507194546 56 171 0.0 4.3 0.00 0.03 0.03 84 1014.5
20260507194034 56 172 0.9 6.1 0.00 0.03 0.03 83 1014.5
20260507193534 56 178 1.7 6.1 0.00 0.03 0.03 83 1014.4
20260507193042 56 114 1.7 6.1 0.00 0.03 0.03 83 1014.3
20260507192533 56 115 1.7 6.1 0.00 0.03 0.03 82 1014.2
20260507192035 56 115 2.6 6.1 0.00 0.03 0.03 82 1014.2
20260507191549 56 119 1.7 6.1 0.00 0.03 0.03 82 1014.1
20260507191034 56 111 1.7 5.2 0.00 0.03 0.03 82 1014.1
20260507190535 56 120 0.0 2.6 0.00 0.03 0.03 83 1014.0
20260507185534 57 132 0.0 1.7 0.00 0.03 0.03 83 1013.8
20260507185034 56 0 0.0 0.9 0.00 0.03 0.03 82 1013.8
20260507184551 57 0 0.0 1.7 0.00 0.03 0.03 83 1013.7
20260507184035 57 0 0.0 2.6 0.00 0.03 0.03 82 1013.6
20260507183536 57 0 0.0 2.6 0.00 0.03 0.03 82 1013.7
20260507183056 57 132 0.9 2.6 0.00 0.03 0.03 82 1013.6
20260507182536 57 0 0.9 2.6 0.00 0.03 0.03 82 1013.6
20260507182035 57 0 0.0 2.6 0.00 0.02 0.02 83 1013.6
20260507181546 57 0 0.0 2.6 0.00 0.02 0.02 83 1013.5
20260507181034 57 111 0.0 2.6 0.00 0.02 0.02 83 1013.6
20260507180534 57 110 0.9 5.2 0.00 0.02 0.02 82 1013.4
20260507180101 57 110 0.9 7.0 0.00 0.02 0.02 82 1013.6
20260507175535 57 117 0.9 7.8 0.00 0.02 0.02 82 1013.6
20260507175035 57 109 1.7 9.6 0.00 0.02 0.02 81 1013.6
20260507174549 58 136 3.5 9.6 0.00 0.02 0.02 80 1013.7
20260507174032 58 143 1.7 7.0 0.00 0.02 0.02 79 1013.6
20260507173532 59 142 1.7 7.0 0.00 0.02 0.02 78 1013.5
20260507173053 59 118 0.9 6.1 0.00 0.02 0.02 76 1013.4
20260507172533 59 115 1.7 7.0 0.00 0.02 0.02 75 1013.4
20260507172035 59 121 1.7 7.0 0.01 0.02 0.02 74 1013.3
20260507171549 59 115 1.7 6.1 0.02 0.02 0.02 74 1013.1
20260507171036 60 142 1.7 4.3 0.02 0.02 0.02 75 1013.0
20260507170537 60 158 1.7 7.0 0.02 0.02 0.02 75 1013.0
20260507170049 60 119 0.9 7.0 0.02 0.02 0.02 74 1013.0
20260507165536 60 120 0.9 3.5 0.02 0.02 0.02 73 1012.8
20260507165037 60 119 0.9 3.5 0.02 0.02 0.02 72 1012.7
20260507164546 60 143 0.9 3.5 0.01 0.01 0.01 72 1012.7
20260507164036 60 0 0.9 3.5 0.01 0.01 0.01 73 1012.6
20260507163538 60 0 0.0 1.7 0.01 0.01 0.01 72 1012.7
20260507163051 61 186 0.0 5.2 0.01 0.01 0.01 71 1012.7
20260507162536 61 186 0.9 8.7 0.01 0.01 0.01 67 1012.7
20260507162038 62 198 2.6 8.7 0.00 0.00 0.00 63 1012.7
20260507161548 63 161 3.5 8.7 0.00 0.00 0.00 58 1012.6
20260507161035 64 201 2.6 8.7 0.00 0.00 0.00 56 1012.5
20260507160538 64 194 2.6 8.7 0.00 0.00 0.00 55 1012.4
20260507160116 64 193 4.3 10.4 0.00 0.00 0.00 54 1012.4
20260507155536 64 205 5.2 10.4 0.00 0.00 0.00 53 1012.3
20260507155040 64 171 6.1 10.4 0.00 0.00 0.00 54 1012.3
20260507154548 65 174 5.2 9.6 0.00 0.00 0.00 53 1012.3
20260507154037 66 111 1.7 6.1 0.00 0.00 0.00 50 1012.2
20260507153539 66 105 0.9 5.2 0.00 0.00 0.00 51 1012.2
20260507153051 66 175 1.7 6.1 0.00 0.00 0.00 52 1012.0
20260507152536 66 158 0.9 7.0 0.00 0.00 0.00 52 1012.0
20260507152035 66 111 2.6 7.0 0.00 0.00 0.00 52 1012.0
20260507151543 67 151 1.7 6.1 0.00 0.00 0.00 51 1012.0
20260507151035 67 166 2.6 6.1 0.00 0.00 0.00 50 1012.0
20260507150540 67 155 2.6 7.0 0.00 0.00 0.00 50 1011.9
20260507150052 67 116 2.6 7.0 0.00 0.00 0.00 50 1011.9
20260507145536 68 116 1.7 7.0 0.00 0.00 0.00 48 1012.0
20260507145037 68 144 1.7 6.1 0.00 0.00 0.00 48 1012.0
20260507144551 69 177 1.7 7.0 0.00 0.00 0.00 49 1011.8
20260507144036 70 115 0.9 8.7 0.00 0.00 0.00 48 1011.8
20260507143535 70 136 3.5 8.7 0.00 0.00 0.00 46 1011.9
20260507143048 69 107 2.6 9.6 0.00 0.00 0.00 47 1011.8
20260507142537 69 114 1.7 9.6 0.00 0.00 0.00 45 1011.9
20260507142037 71 119 2.6 9.6 0.00 0.00 0.00 43 1011.9
20260507141552 71 109 3.5 8.7 0.00 0.00 0.00 42 1011.9
20260507141037 71 146 3.5 9.6 0.00 0.00 0.00 42 1011.8
20260507140535 71 148 2.6 9.6 0.00 0.00 0.00 45 1011.8
20260507140106 70 150 2.6 7.8 0.00 0.00 0.00 45 1011.7
20260507135534 71 150 2.6 8.7 0.00 0.00 0.00 42 1011.8
20260507135037 72 126 2.6 8.7 0.00 0.00 0.00 45 1011.7
20260507134553 71 0 2.6 6.1 0.00 0.00 0.00 42 1011.8
20260507134034 72 162 1.7 6.1 0.00 0.00 0.00 46 1011.8
20260507133537 71 150 1.7 7.0 0.00 0.00 0.00 45 1011.9
20260507133051 70 94 0.9 7.0 0.00 0.00 0.00 45 1011.9
20260507132535 69 120 1.7 7.0 0.00 0.00 0.00 46 1011.9
20260507132040 68 150 0.0 2.6 0.00 0.00 0.00 47 1011.9
20260507131600 69 0 0.9 2.6 0.00 0.00 0.00 44 1012.1
20260507131037 70 138 0.0 3.5 0.00 0.00 0.00 44 1012.0
20260507130534 68 142 0.9 4.3 0.00 0.00 0.00 48 1012.0
20260507130052 67 0 0.0 4.3 0.00 0.00 0.00 47 1012.1
20260507125535 67 169 0.9 4.3 0.00 0.00 0.00 45 1012.0
20260507125034 66 222 0.9 7.0 0.00 0.00 0.00 47 1012.0
20260507124605 66 319 1.7 7.0 0.00 0.00 0.00 47 1012.0
20260507124036 66 315 2.6 7.0 0.00 0.00 0.00 46 1012.1
20260507123535 66 286 1.7 7.0 0.00 0.00 0.00 48 1012.2
20260507123057 67 281 1.7 7.0 0.00 0.00 0.00 47 1012.1
20260507122536 67 325 2.6 7.0 0.00 0.00 0.00 47 1012.2
20260507122035 67 176 3.5 7.0 0.00 0.00 0.00 47 1012.1
20260507121550 67 314 2.6 7.0 0.00 0.00 0.00 47 1012.2
20260507121036 67 250 1.7 9.6 0.00 0.00 0.00 49 1012.2
20260507120534 66 220 2.6 9.6 0.00 0.00 0.00 48 1012.3
20260507120051 66 263 3.5 9.6 0.00 0.00 0.00 47 1012.4
20260507115534 66 302 1.7 8.7 0.00 0.00 0.00 49 1012.3
20260507115035 65 265 3.5 9.6 0.00 0.00 0.00 49 1012.3
20260507114549 65 212 3.5 9.6 0.00 0.00 0.00 50 1012.4
20260507114038 65 232 3.5 11.3 0.00 0.00 0.00 50 1012.4
20260507113535 65 194 4.3 11.3 0.00 0.00 0.00 50 1012.5
20260507113047 65 242 7.0 11.3 0.00 0.00 0.00 50 1012.4
20260507112535 65 246 4.3 8.7 0.00 0.00 0.00 51 1012.6
20260507112035 65 291 3.5 8.7 0.00 0.00 0.00 51 1012.4
20260507111548 65 355 2.6 7.0 0.00 0.00 0.00 51 1012.5
20260507111036 65 270 3.5 9.6 0.00 0.00 0.00 51 1012.6
20260507110535 65 244 3.5 9.6 0.00 0.00 0.00 52 1012.7
20260507110046 65 152 3.5 10.4 0.00 0.00 0.00 51 1012.7
20260507105536 65 225 2.6 10.4 0.00 0.00 0.00 52 1012.8
20260507105034 64 219 3.5 9.6 0.00 0.00 0.00 52 1012.8
20260507104553 64 317 3.5 9.6 0.00 0.00 0.00 52 1013.0
20260507104036 63 267 2.6 11.3 0.00 0.00 0.00 53 1013.1
20260507103533 63 240 3.5 11.3 0.00 0.00 0.00 54 1013.1
20260507103046 63 257 4.3 8.7 0.00 0.00 0.00 53 1013.2
20260507102534 63 257 5.2 8.7 0.00 0.00 0.00 53 1013.2
20260507102036 63 220 3.5 8.7 0.00 0.00 0.00 53 1013.2
20260507101549 63 221 2.6 9.6 0.00 0.00 0.00 53 1013.3
20260507101036 63 294 3.5 13.0 0.00 0.00 0.00 54 1013.2
20260507100533 63 211 4.3 13.0 0.00 0.00 0.00 54 1013.3
20260507100048 63 205 3.5 10.4 0.00 0.00 0.00 54 1013.2
20260507095535 63 206 2.6 10.4 0.00 0.00 0.00 53 1013.2
20260507095035 63 229 5.2 10.4 0.00 0.00 0.00 52 1013.2
20260507094552 63 205 1.7 8.7 0.00 0.00 0.00 53 1013.0
20260507094036 63 313 2.6 11.3 0.00 0.00 0.00 53 1013.0
20260507093535 63 261 3.5 13.0 0.00 0.00 0.00 53 1013.0
20260507093045 63 259 6.1 13.0 0.00 0.00 0.00 53 1013.1
20260507092536 62 242 6.1 12.2 0.00 0.00 0.00 53 1013.1
20260507092039 62 256 3.5 8.7 0.00 0.00 0.00 53 1013.1
20260507091550 62 278 3.5 8.7 0.00 0.00 0.00 53 1013.0
20260507091037 62 335 2.6 7.0 0.00 0.00 0.00 55 1012.9
20260507090536 62 326 2.6 7.8 0.00 0.00 0.00 54 1012.9
20260507090046 61 0 3.5 15.6 0.00 0.00 0.00 54 1012.8
20260507085536 61 227 6.1 15.6 0.00 0.00 0.00 54 1012.8
20260507085036 62 350 6.1 12.2 0.00 0.00 0.00 53 1012.7
20260507084553 62 187 5.2 13.9 0.00 0.00 0.00 54 1012.6
20260507084037 62 266 7.0 13.9 0.00 0.00 0.00 54 1012.5
20260507083535 62 254 6.1 14.8 0.00 0.00 0.00 54 1012.3
20260507083056 62 232 4.3 14.8 0.00 0.00 0.00 54 1012.2
20260507082538 62 210 3.5 13.9 0.00 0.00 0.00 54 1012.2
20260507082039 62 348 3.5 13.9 0.00 0.00 0.00 55 1012.1
20260507081547 61 236 7.0 13.0 0.00 0.00 0.00 54 1012.0
20260507081040 61 319 5.2 11.3 0.00 0.00 0.00 55 1012.1
20260507080537 61 296 5.2 11.3 0.00 0.00 0.00 55 1012.0
20260507080107 61 252 5.2 10.4 0.00 0.00 0.00 56 1012.0
20260507075536 60 338 4.3 11.3 0.00 0.00 0.00 56 1012.0
20260507075036 60 307 2.6 13.9 0.00 0.00 0.00 57 1012.1
20260507074546 60 312 4.3 13.9 0.00 0.00 0.00 57 1012.1
20260507074036 60 272 6.1 17.4 0.00 0.00 0.00 57 1012.0
20260507073536 60 266 8.7 17.4 0.00 0.00 0.00 57 1011.9
20260507073050 60 295 5.2 15.6 0.00 0.00 0.00 57 1011.8
20260507072536 60 242 4.3 10.4 0.00 0.00 0.00 58 1011.7
20260507072037 60 269 4.3 10.4 0.00 0.00 0.00 58 1011.6
20260507071600 59 346 2.6 13.9 0.00 0.00 0.00 59 1011.6
20260507071034 59 333 4.3 13.9 0.00 0.00 0.00 60 1011.5
20260507070535 59 299 4.3 13.0 0.00 0.00 0.00 60 1011.5
20260507070051 59 314 4.3 13.0 0.00 0.00 0.00 60 1011.5
20260507065535 59 306 4.3 13.9 0.00 0.00 0.00 60 1011.4
20260507065034 58 321 3.5 13.9 0.00 0.00 0.00 61 1011.5
20260507064555 58 293 5.2 12.2 0.00 0.00 0.00 61 1011.5
20260507064036 58 319 6.1 12.2 0.00 0.00 0.00 61 1011.5
20260507063536 58 316 6.1 11.3 0.00 0.00 0.00 61 1011.3
20260507063055 58 313 4.3 12.2 0.00 0.00 0.00 61 1011.4
20260507062536 58 225 7.0 12.2 0.00 0.00 0.00 61 1011.4
20260507062036 58 292 5.2 16.5 0.00 0.00 0.00 61 1011.2
20260507061547 58 255 7.8 16.5 0.00 0.00 0.00 61 1011.2
20260507061036 58 252 7.8 16.5 0.00 0.00 0.00 61 1011.2
20260507060536 58 316 5.2 15.6 0.00 0.00 0.00 61 1011.2
20260507060054 58 335 7.0 15.6 0.00 0.00 0.00 61 1011.0
20260507055538 58 320 6.1 15.6 0.00 0.00 0.00 61 1010.8
20260507055037 58 255 7.0 15.6 0.00 0.00 0.00 61 1010.9
20260507054558 58 259 5.2 14.8 0.00 0.00 0.00 61 1010.9
20260507054036 58 269 7.0 14.8 0.00 0.00 0.00 62 1010.7
20260507053536 58 259 8.7 16.5 0.00 0.00 0.00 62 1010.6
20260507053049 58 288 7.0 16.5 0.00 0.00 0.00 62 1010.7
20260507052536 58 282 7.8 15.6 0.00 0.00 0.00 62 1010.6
20260507052036 58 338 7.0 13.0 0.00 0.00 0.00 62 1010.5
20260507051549 58 208 5.2 15.6 0.00 0.00 0.00 62 1010.5
20260507051035 58 246 7.0 15.6 0.00 0.00 0.00 62 1010.5
20260507050535 58 313 7.0 19.1 0.00 0.00 0.00 62 1010.5
20260507050047 58 318 7.8 19.1 0.00 0.00 0.00 62 1010.3
20260507045536 58 290 6.1 14.8 0.00 0.00 0.00 62 1010.3
20260507045036 58 246 7.0 15.6 0.00 0.00 0.00 62 1010.5
20260507044546 58 339 8.7 18.2 0.00 0.00 0.00 62 1010.1
20260507044038 58 351 8.7 18.2 0.00 0.00 0.00 63 1010.0
20260507043536 58 273 7.8 14.8 0.00 0.00 0.00 63 1010.1
20260507043047 58 276 7.0 15.6 0.00 0.00 0.00 63 1009.9
20260507042536 57 332 7.0 15.6 0.00 0.00 0.00 63 1009.8
20260507042035 58 316 7.0 15.6 0.00 0.00 0.00 63 1009.8
20260507041555 58 297 7.0 12.2 0.00 0.00 0.00 63 1009.7
20260507041036 57 288 5.2 12.2 0.00 0.00 0.00 63 1009.6
20260507040537 57 313 5.2 12.2 0.00 0.00 0.00 63 1009.6
20260507040058 57 268 6.1 13.9 0.00 0.00 0.00 63 1009.5
20260507035536 58 325 4.3 13.9 0.00 0.00 0.00 63 1009.5
20260507035036 58 323 7.0 13.9 0.00 0.00 0.00 63 1009.6
20260507034555 58 278 7.0 15.6 0.00 0.00 0.00 63 1009.7
20260507034035 58 298 7.0 15.6 0.00 0.00 0.00 63 1009.6
20260507033535 58 273 5.2 13.9 0.00 0.00 0.00 63 1009.5
20260507033047 58 279 6.1 14.8 0.00 0.00 0.00 63 1009.7
20260507032539 58 293 7.0 14.8 0.00 0.00 0.00 63 1009.5
20260507032036 58 305 7.8 14.8 0.00 0.00 0.00 63 1009.5
20260507031543 58 329 7.0 13.0 0.00 0.00 0.00 63 1009.5
20260507031035 58 317 6.1 12.2 0.00 0.00 0.00 64 1009.5
20260507030537 58 342 7.8 12.2 0.00 0.00 0.00 64 1009.4
20260507030053 58 275 5.2 13.9 0.00 0.00 0.00 64 1009.4
20260507025537 58 313 7.8 13.9 0.00 0.00 0.00 64 1009.3
20260507025036 58 267 7.0 13.9 0.00 0.00 0.00 64 1009.2
20260507024551 58 328 7.0 13.9 0.00 0.00 0.00 64 1009.3
20260507024037 58 292 5.2 13.0 0.00 0.00 0.00 65 1009.2
20260507023535 58 303 7.0 13.0 0.00 0.00 0.00 65 1009.1
20260507023047 59 297 6.1 13.0 0.00 0.00 0.00 65 1009.3
20260507022535 59 341 7.0 13.0 0.00 0.00 0.00 65 1009.3
20260507022037 59 275 6.1 12.2 0.00 0.00 0.00 65 1009.2
20260507021548 59 292 7.0 13.0 0.00 0.00 0.00 65 1009.3
20260507021037 59 311 7.0 13.0 0.00 0.00 0.00 65 1009.3
20260507020536 59 324 7.0 13.0 0.00 0.00 0.00 65 1009.2
20260507020101 59 304 5.2 13.9 0.00 0.00 0.00 65 1009.1
20260507015536 59 308 7.8 15.6 0.00 0.00 0.00 65 1008.9
20260507015036 59 360 7.0 15.6 0.00 0.00 0.00 65 1009.0
20260507014601 59 313 7.8 15.6 0.00 0.00 0.00 65 1008.9
20260507014036 59 281 7.0 13.9 0.00 0.00 0.00 65 1009.0
20260507013538 59 286 7.0 13.9 0.00 0.00 0.00 65 1008.9
20260507013047 59 328 5.2 15.6 0.00 0.00 0.00 65 1009.0
20260507012535 60 283 4.3 15.6 0.00 0.00 0.00 65 1008.9
20260507012035 60 323 5.2 13.0 0.00 0.00 0.00 65 1008.9
20260507011556 60 268 5.2 15.6 0.00 0.00 0.00 65 1008.8
20260507011036 60 291 7.0 15.6 0.00 0.00 0.00 65 1008.7
20260507010536 60 338 6.1 14.8 0.00 0.00 0.00 65 1008.7
20260507010046 60 321 8.7 14.8 0.00 0.00 0.00 65 1008.7
20260507005536 60 244 5.2 13.0 0.00 0.00 0.00 65 1008.8
20260507005039 60 270 7.0 16.5 0.00 0.00 0.00 64 1008.7
20260507004551 60 232 6.1 16.5 0.00 0.00 0.00 64 1008.7
20260507004035 60 280 7.0 18.2 0.00 0.00 0.00 63 1008.7
20260507003539 61 273 8.7 18.2 0.00 0.00 0.00 63 1008.6
20260507003043 61 248 7.0 13.9 0.00 0.00 0.00 63 1008.5
20260507002535 61 5 6.1 12.2 0.00 0.00 0.00 63 1008.5
20260507002035 61 355 5.2 12.2 0.00 0.00 0.00 63 1008.5
20260507001612 61 340 6.1 12.2 0.00 0.00 0.00 63 1008.3
20260507001034 61 317 4.3 12.2 0.00 0.00 0.00 63 1008.5
20260507000539 61 226 3.5 12.2 0.00 0.00 0.00 63 1008.3
20260507000100 61 291 5.2 13.0 0.00 0.00 0.00 63 1008.3
20260506235536 61 288 3.5 13.0 0.00 0.00 0.00 63 1008.2
20260506235036 61 290 7.0 13.0 0.00 0.00 0.00 63 1008.1
20260506234558 62 0 4.3 15.6 0.00 0.00 0.00 64 1008.3
20260506234036 62 262 7.8 15.6 0.00 0.00 0.00 65 1008.2
20260506233537 62 290 6.1 13.0 0.00 0.00 0.00 66 1008.2
20260506233046 61 237 5.2 14.8 0.00 0.00 0.00 67 1008.3
20260506232536 61 260 6.1 15.6 0.00 0.00 0.00 68 1008.1
20260506232035 62 300 5.2 15.6 0.00 0.00 0.00 68 1008.1
20260506231552 62 223 7.8 15.6 0.00 0.00 0.00 68 1008.0
20260506231036 62 298 6.1 13.9 0.00 0.00 0.00 68 1008.0
20260506230539 62 313 5.2 16.5 0.00 0.00 0.00 67 1008.0
20260506230054 62 325 6.1 16.5 0.00 0.00 0.00 66 1008.0
20260506225535 62 239 7.0 15.6 0.00 0.00 0.00 66 1007.9
20260506225036 62 278 5.2 12.2 0.00 0.00 0.00 64 1007.7
20260506224552 63 315 6.1 12.2 0.00 0.00 0.00 63 1007.4
20260506224035 63 267 6.1 13.9 0.00 0.00 0.00 62 1007.3
20260506223535 63 290 6.1 13.9 0.00 0.00 0.00 61 1007.2
20260506223053 63 259 4.3 11.3 0.00 0.00 0.00 61 1007.0
20260506222536 63 214 6.1 11.3 0.00 0.00 0.00 61 1007.0
20260506222036 63 240 4.3 8.7 0.00 0.00 0.00 61 1007.0
20260506221553 63 209 2.6 7.8 0.00 0.00 0.00 61 1006.9
20260506221035 63 302 1.7 7.0 0.00 0.00 0.00 62 1006.8
20260506220536 63 302 2.6 7.0 0.00 0.00 0.00 62 1006.6
20260506220107 63 250 2.6 7.0 0.00 0.00 0.00 62 1006.6
20260506215537 63 220 1.7 5.2 0.00 0.00 0.00 63 1006.4
20260506215037 63 209 1.7 6.1 0.00 0.00 0.00 63 1006.3
20260506214550 63 171 1.7 6.1 0.00 0.00 0.00 62 1006.1
20260506214036 64 161 0.9 6.1 0.00 0.00 0.00 62 1005.8
20260506213536 64 0 0.9 5.2 0.00 0.00 0.00 62 1005.7
20260506213057 64 124 0.0 5.2 0.00 0.00 0.00 62 1005.5
20260506212536 64 146 1.7 6.1 0.00 0.00 0.00 62 1005.5
20260506212036 64 145 1.7 6.1 0.00 0.00 0.00 61 1005.4
20260506211550 64 156 1.7 6.1 0.00 0.00 0.00 62 1005.3
20260506211036 64 165 1.7 7.0 0.00 0.00 0.00 62 1005.2
20260506210538 64 114 1.7 8.7 0.00 0.00 0.00 61 1005.2
20260506210057 64 113 0.9 8.7 0.00 0.00 0.00 61 1005.1
20260506205535 65 116 2.6 8.7 0.00 0.00 0.00 61 1005.1
20260506205035 65 112 1.7 9.6 0.00 0.00 0.00 61 1005.1
20260506204550 65 119 2.6 9.6 0.00 0.00 0.00 60 1005.1
20260506204035 65 142 4.3 9.6 0.00 0.00 0.00 60 1005.1
20260506203535 65 113 2.6 9.6 0.00 0.00 0.00 60 1005.1
20260506203137 65 117 1.7 10.4 0.00 0.00 0.00 60 1005.0